Miscellaneous Local Product
Issued by NWS North Platte, NE

Home | Current Version | Previous Version | Text Only | Print | Product List | Glossary On
Versions: 1 2 3 4 5 6 7 8 9 10 11 12 13 14 15 16 17 18 19 20 21 22 23 24 25 26 27 28 29 30 31 32 33 34 35 36 37 38 39 40 41 42 43 44 45 46 47 48 49 50
710
AXUS43 KLBF 120910
MISLBF


WESTERN AND NORTH CENTRAL NEBRASKA HOURLY WEATHER ROUNDUP
NATIONAL WEATHER SERVICE NORTH PLATTE NE
300 AM CST FRI FEB 12 2016

NOTE: "FAIR" INDICATES FEW OR NO CLOUDS BELOW 12,000 FEET WITH NO
SIGNIFICANT WEATHER AND/OR OBSTRUCTIONS TO VISIBILITY.

NOTE: STATIONS NOT REPORTING VARIABLES SUCH AS SKY/WEATHER OR
PRESSURE ARE PROVIDED BY THE NEBRASKA DEPARTMENT OF
ROADS...RAWS...AND APRS NETWORKS...AND ARE NOT UNDER
NATIONAL WEATHER SERVICE QUALITY CONTROL.

...OBSERVATIONS IN AND NEAR THE EASTERN PANHANDLE OF NEBRASKA...

CITY           SKY/WX    TMP DP  RH WIND       PRES   REMARKS
PINE RIDGE     CLOUDY    33  29  85 NW5       30.25S WCI  29
CHADRON        CLEAR     24  22  91 CALM      30.26R
ALLIANCE       CLOUDY    23  21  92 W7        30.23S WCI  15
SIDNEY         CLOUDY    32  27  81 W13       30.25R WCI  22
CRESCENT LAKE    N/A     33  26  76 NW6         N/A  WCI  27
BIG SPRINGS      N/A     31  28  89 SW3         N/A
$$

...OBSERVATIONS IN NORTH CENTRAL NEBRASKA...

CITY           SKY/WX    TMP DP  RH WIND       PRES   REMARKS
VALENTINE      CLOUDY    31  27  85 N8        30.26R WCI  23
THEDFORD       CLOUDY    31  30  96 W8        30.24R WCI  23
AINSWORTH      CLOUDY    30  28  90 NW10      30.25R WCI  21
O`NEILL        CLOUDY    27  25  93 N6        30.27R WCI  20
ORD            CLOUDY    29  24  82 N10       30.25R WCI  20
BROKEN BOW     CLOUDY    31  28  89 N9        30.23R WCI  23
VALENTINE NWR    N/A     24  23  96 CALM        N/A
BUTTE            N/A     24  23  94 MISG        N/A
HALSEY           N/A     28  27  95 CALM        N/A
CHAMBERS         N/A     26  23  87 N3          N/A
EWING            N/A     25  23  91 N5          N/A  WCI  19
$$

...OBSERVATIONS IN SOUTHWEST NEBRASKA AND FAR NORTHEAST COLORADO...

CITY           SKY/WX    TMP DP  RH WIND       PRES   REMARKS
HOLYOKE        FAIR      34  30  86 W7        30.26R WCI  28
IMPERIAL       CLEAR     28  24  85 W7        30.26R WCI  21
OGALLALA       CLEAR     31  26  81 CALM      30.25R
NORTH PLATTE   CLOUDY    24  22  91 NW6       30.26R WCI  17
MCCOOK         CLEAR     30  26  85 NW5       30.26R WCI  25
LEXINGTON      CLOUDY    32  28  88 NW7       30.26R WCI  25
PAXTON           N/A     30  27  88 CALM        N/A
STAPLETON        N/A     28  27  94 CALM        N/A
GOTHENBURG       N/A     31  27  85 NW5         N/A  WCI  26
CALLAWAY         N/A     30  28  92 NW8         N/A  WCI  22
$$

...OBSERVATIONS IN CENTRAL LINCOLN COUNTY AREA...

CITY           SKY/WX    TMP DP  RH WIND       PRES   REMARKS
N.P. AIRPORT   CLOUDY    24  22  91 NW6       30.26R WCI  17
N.P. DOWNTOWN    N/A     31  29  90 CALM        N/A
N.P. SOUTHEAST   N/A     32  29  87 CALM        N/A
N.P. HILLCREST   N/A     30  28  92 N3          N/A
$$

...SOME OBSERVATIONS FROM AROUND THE REGION...

CITY           SKY/WX    TMP DP  RH WIND       PRES   REMARKS
DENVER         CLOUDY    34  24  67 SE13      30.26R WCI  25
LARAMIE        CLOUDY    36  23  59 W12       30.28F WCI  28
CHEYENNE       CLOUDY    31  24  75 SW6       30.26S WCI  25
SCOTTSBLUFF    CLOUDY    30  26  85 NW6       30.25R WCI  24
RAPID CITY     CLOUDY    30  28  92 N5        30.26R WCI  25
BISMARCK       FLURRIES  20  14  77 N5        30.37R WCI  13
PIERRE         CLOUDY    22  17  81 N13       30.32R WCI  10
WINNER         CLOUDY    29  26  89 N10       30.28R FOG     WCI  20
SIOUX FALLS    CLOUDY    18  14  84 N8        30.27R WCI   8
OMAHA          CLOUDY    24  20  84 N9        30.27R WCI  14
GRAND ISLAND   CLOUDY    27  24  89 N13       30.27R WCI  16
KANSAS CITY    CLOUDY    29  21  72 E7        30.19S WCI  22
WICHITA        PTCLDY    32  25  75 W3        30.20R
OKLAHOMA CITY  PTCLDY    37  32  82 N8        30.19R WCI  31
LIBERAL        CLOUDY    34  19  55 NW7       30.25R WCI  28
GOODLAND       CLOUDY    29  24  82 W7        30.26R WCI  22
$$




USA.gov is the U.S. government's official web portal to all federal, state and local government web resources and services.